Regional Weather Roundup
Issued by NWS

Home | Current Version | Previous Version | Graphics & Text | Print | Product List | Glossary Off
Versions: 1 2 3 4 5 6 7 8 9 10 11 12 13 14 15 16 17 18 19 20 21 22 23 24 25 26 27 28 29 30 31 32 33 34 35 36 37 38 39 40 41 42 43 44 45 46 47 48 49 50

000
ASUS43 KMPX 201810
RWRMN
WEATHER ROUNDUP FOR MINNESOTA
NATIONAL WEATHER SERVICE TWIN CITIES/CHANHASSEN MN
1200 PM CST TUE FEB 20 2018


NOTE: "FAIR" INDICATES FEW OR NO CLOUDS BELOW 12,000 FEET WITH NO
SIGNIFICANT WEATHER AND/OR OBSTRUCTIONS TO VISIBILITY. N/A MEANS
CURRENT SKY AND/OR WEATHER CONDITIONS ARE NOT AVAILABLE.

MNZ060>063-068>070-201900-
   Twin Cities Metro

CITY           SKY/WX    TMP DP  RH WIND       PRES   REMARKS
TWIN CITIES    CLOUDY    19  15  84 W12       29.96R WCI   7
6HR MIN TEMP:  18; 6HR MAX TEMP:  20; 6HR PCP: TRACE;

ST PAUL        CLOUDY    19  15  84 W14       29.97R WCI   6
CRYSTAL        CLOUDY    18  11  74 W15       29.94R WCI   4
BLAINE         CLOUDY    19  16  86 W12       29.94R WCI   7
LAKEVILLE      CLOUDY    18  14  86 W12       29.95R WCI   5
EDEN PRAIRIE   CLOUDY    19  12  74 W13       29.95R WCI   6
6HR MIN TEMP:  17; 6HR MAX TEMP:  20;

SOUTH ST PAUL  PTSUNNY   20  16  82 W8        29.96R WCI  10
LAKE ELMO      CLOUDY    19  18  93 W6        29.95R WCI  11
$$
MNZ001>005-007-008-013>017-022>024-027-028-201900-
   Northwest Minnesota

CITY           SKY/WX    TMP DP  RH WIND       PRES   REMARKS
BEMIDJI        PTSUNNY    8   1  74 W12       29.96R WCI  -7
HALLOCK        FAIR       7   1  78 NW9       30.08F HAZE    WCI  -7
ROSEAU         LGT SNOW   7   1  78 NW10      30.02S WCI  -8
WARROAD        LGT SNOW   7   1  78 NW13      30.00F WCI  -9
THIEF RVR FALL LGT SNOW   6   0  76 NW16      30.04S WCI -12
CROOKSTON      CLOUDY     9   3  78 N17       30.09R HAZE    WCI -10
FOSSTON        CLOUDY     9   0  66 NW13      30.02R HAZE    WCI  -7
DETROIT LAKES  SNOW       9   3  78 NW18      30.02R VSB 1/2 WCI -10
MOORHEAD       CLOUDY     7   1  78 NW18      30.10S HAZE    WCI -12
PARK RAPIDS    MIX PCPN  11   3  70 NW9       29.93R WCI  -2
MAHNOMEN       CLOUDY     6   1  77 NW16      30.02R HAZE    WCI -12
$$
MNZ006-009>011-018-025>026-201900-
   North Central Minnesota

CITY           SKY/WX    TMP DP  RH WIND       PRES   REMARKS
BAUDETTE       LGT SNOW   5   0  79 NW13      29.96R WCI -12
FLAG ISLAND    LGT SNOW   3   0  85 NW14      29.99S WCI -15
INTL FALLS     LGT SNOW   7   1  76 NW3       29.93F
6HR MIN TEMP:   4; 6HR MAX TEMP:   7; 6HR PCP:  0.10;

WASKISH        LGT SNOW   9   3  78 NW6       29.95R WCI  -1
BIG FORK       FLURRIES  10   1  67 NW3       29.90F
LONGVILLE      FLURRIES  10   1  67 W10       29.93R WCI  -3
GRAND RAPIDS   FLURRIES   8   3  80 NW10      29.91F WCI  -6
CRANE LAKE     LGT SNOW   5   0  78 NW5       29.92F WCI  -4
ORR            LGT SNOW   7  -2  66 NW6       29.87R WCI  -3
COOK           LGT SNOW   7   1  78 NW6       29.89R WCI  -3
WALKER         FLURRIES   8   0  70 W8        29.93S WCI  -4
$$
MNZ012-019>021-037-201900-
   Northeast Minnesota

CITY           SKY/WX    TMP DP  RH WIND       PRES   REMARKS
DULUTH         LGT SNOW   9   4  80 NW12      29.85R WCI  -6
6HR MIN TEMP:   8; 6HR MAX TEMP:   9; 6HR PCP:  0.01;

ELY            LGT SNOW   3   0  85 CALM      29.85F
HIBBING        LGT SNOW   7   2  80 NW5       29.87F WCI  -2
EVELETH        LGT SNOW N/A N/A N/A NW5       29.88R
DULUTH HARBOR  FLURRIES  14   9  79 W8        29.92R WCI   3
TWO HARBORS    CLOUDY    16   9  73 NW8       29.83S WCI   5
GRAND MARAIS     N/A     15   8  73 VRB3      29.87F
G MARAIS ARPRT LGT SNOW   5   0  78 N8        29.76F WCI  -8
$$
MNZ029>031-032-039>041-046>048-054>057-064-201900-
   West Central Minnesota

CITY           SKY/WX    TMP DP  RH WIND       PRES   REMARKS
FERGUS FALLS   LGT SNOW   7   1  78 NW21G30   30.05S WCI -13
WHEATON        FAIR       9   1  72 NW22      30.10S HAZE    WCI -11
MORRIS         CLOUDY     9   3  78 NW25      30.03R HAZE    WCI -13
ALEXANDRIA     PTSUNNY   13   4  67 NW16      29.96S WCI  -3
ELBOW LAKE     FAIR       8   2  78 W18G25    30.02F WCI -11
WADENA         CLOUDY    10   3  72 NW10      29.95F WCI  -3
GLENWOOD       FLURRIES  12   7  79 W14       29.97S WCI  -3
APPLETON       CLOUDY    10   3  72 NW22G28   30.05S HAZE    WCI  -9
BENSON           N/A     10   3  72 N21       30.04R HAZE    WCI  -9
ORTONVILLE     PTSUNNY    9   1  72 NW20G28   30.07R HAZE    WCI -11
MADISON          N/A     12   5  73 NW20G25   30.07S WCI  -6
WILLMAR        PTSUNNY   10   7  85 W16       30.02R WCI  -7
$$
MNZ033>034-036-042>043-049>051-058-059-201900-
   Central Minnesota

CITY           SKY/WX    TMP DP  RH WIND       PRES   REMARKS
ST CLOUD       CLOUDY    14   8  77 NW12      29.95R WCI   0
6HR MIN TEMP:  12; 6HR MAX TEMP:  15;

SAUK CENTRE    MOCLDY    12   5  73 W13       29.96F WCI  -3
PAYNESVILLE    PTSUNNY   15   8  74 W10G18    29.98R WCI   2
AITKIN         FLURRIES  12   3  67 W3        29.90S
PINE RIVER     CLOUDY    10   1  67 NW6       29.96S WCI   1
BRAINERD       CLOUDY    13   3  64 W9        29.93R WCI   1
STAPLES        CLOUDY    12   3  67 NW10      29.94S WCI  -1
LONG PRAIRIE   FAIR      14   5  67 W12       29.94F WCI   0
LITTLE FALLS   PTSUNNY   14   1  57 NW7       29.95S WCI   4
LITCHFIELD     CLOUDY    16  10  79 W10G16    29.98R WCI   3
BUFFALO        FLURRIES  17  10  73 W9        29.97R WCI   6
MAPLE LAKE     FLURRIES  18  12  75 NW9       29.97R WCI   7
HUTCHINSON     CLOUDY    18  11  74 W14       29.98R WCI   4
$$
MNZ037-044-045-052-053-201900-
   East Central Minnesota

CITY           SKY/WX    TMP DP  RH WIND       PRES   REMARKS
PRINCETON      CLOUDY    18  10  73 W8        29.93S WCI   7
MORA           FLURRIES  14   9  79 NW9       29.94R WCI   2
CAMBRIDGE      FLURRIES  18   9  68 W8        29.95R WCI   7
RUSH CITY      FLURRIES  15  10  82 NW6       29.94R WCI   6
MOOSE LAKE     CLOUDY    12   5  73 CALM      29.90R
HINCKLEY       FLURRIES  14  10  85 NW8       29.92R WCI   3
CLOQUET        FLURRIES   9   3  78 NW12      29.87R WCI  -6
MCGREGOR       CLOUDY    12   7  79 NW6       29.90S WCI   3
$$
MNZ071>073-080-081-089-090-097-098-201900-
   Southwest Minnesota

CITY           SKY/WX    TMP DP  RH WIND       PRES   REMARKS
MONTEVIDEO     CLOUDY    12   5  73 N18       30.04R WCI  -5
GRANITE FALLS  FAIR      13   6  73 W20       30.06R WCI  -5
CANBY          FAIR      11   4  71 W18G28    30.08R WCI  -6
MARSHALL       FLURRIES   9   3  77 NW24      30.04R WCI -12
REDWOOD FALLS  PTSUNNY   13   7  77 W21       30.02R WCI  -5
OLIVIA         FAIR      14   9  79 NW16G23   30.01R HAZE    WCI  -2
PIPESTONE      FAIR       9   1  72 NW15G24   30.01S WCI  -8
WINDOM         CLOUDY    12  -2  52 CALM      30.01R HAZE
WORTHINGTON    FAIR      13   6  74 NW20      30.02R WCI  -5
JACKSON        CLOUDY    12   7  79 W18       29.99F WCI  -5
TRACY          FAIR      10   6  81 NW16      30.04R WCI  -7
SLAYTON        FAIR      10   4  78 W16       30.02R WCI  -8
$$
MNZ065>067-074>077-082>085-091>093-201900-
   South Central Minnesota

CITY           SKY/WX    TMP DP  RH WIND       PRES   REMARKS
MANKATO        FLURRIES  16  11  80 W18       29.98R WCI   0
NEW ULM        FLURRIES  16   9  73 W16       30.00R WCI   0
ST JAMES       FLURRIES  14   9  79 W14       30.02R WCI  -1
FAIRMONT       FLURRIES  16  10  77 NW23G29   30.00R WCI  -2
GLENCOE        CLOUDY    18  12  77 W14       29.97R WCI   4
FARIBAULT      CLOUDY    18  14  86 W8        29.95R WCI   7
OWATONNA       CLOUDY    18  16  93 CALM      29.94S
WASECA         CLOUDY    19  14  79 W12       29.98R WCI   7
ALBERT LEA     CLOUDY    18  16  93 NW8       29.95S WCI   7
$$
MNZ078>079-086>088-094>096-201900-
   Southeast Minnesota

CITY           SKY/WX    TMP DP  RH WIND       PRES   REMARKS
ROCHESTER      MIX PCPN  21  20  96 W15       29.90R WCI   8
6HR MIN TEMP:  20; 6HR MAX TEMP:  25; 6HR PCP: TRACE;

RED WING       CLOUDY    23  18  80 W10G16    29.93R WCI  12
STANTON        CLOUDY    21  16  82 W9        29.93R WCI  10
DODGE CENTER   CLOUDY    19  16  86 W7        29.90F WCI  10
WINONA         CLOUDY    27  23  86 NW12      29.90F WCI  16
AUSTIN         CLOUDY    19  18  93 W9        29.92F WCI   9
PRESTON        CLOUDY    23  20  88 W12       29.90F WCI  11
$$
ABBREVIATIONS USED IN REMARKS
   TC - TEMPERATURES IN CELSIUS
  WCI - WIND CHILL INDEX
   HX - HEAT INDEX
  VSB - VISIBILITY
$$



USA.gov is the U.S. government's official web portal to all federal, state and local government web resources and services.